Flag for Germany Weather past 2 weeks in Kaufbeuren, Bavaria, Germany

Now
57 °F

Cool.


Feels Like: 55 °F
Forecast: 46 / 71 °F
Wind: 9 mph from North

Location: Altenstadt Airport

Current Time: May 30, 2015 at 1:09:53 PM

Latest Report: May 30, 2015 at 12:20 PM


Visibility: N/A

Pressure: 30.01 "Hg

Humidity: 77%

Dew point: 50 °F

Location of KaufbeurenLocation

Historic Weather in Kaufbeuren — Graph

°F

Kaufbeuren temperature yesterday

Maximum temperature yesterday: 70 °F (at 2:20 PM)
Minimum temperature yesterday: 46 °F (at 6:20 AM)
Average temperature yesterday: 60 °F

Past Weeks' High & Low Weather Summary

 TemperatureHumidityPressure
High72 °F (May 18, 6:20 PM)100% (May 15, 11:20 AM)30.30 "Hg (May 15, 11:20 AM)
Low36 °F (May 28, 4:20 AM)30% (May 28, 5:20 PM)29.80 "Hg (May 18, 5:20 PM)
Average51 °F82%30.07 "Hg
* Reported May 15 11:20 AM — May 30 11:20 AM, Kaufbeuren, Weather by CustomWeather, © 2015

Note: Actual official high and low records may vary slightly from our data, if they occured in-between our weather recording intervals... More about our weather records

Advertising

Kaufbeuren weather history for previous 24 hours

 ConditionsComfort  
Time TempWeatherWind HumidityBarometerVisibility
11:20 AM
Sat, May 30
57 °FCool.9 mph77%30.01 "HgN/A
10:20 AM57 °FCool.9 mph77%30.01 "HgN/A
9:20 AM57 °FCool.9 mph77%30.01 "HgN/A
8:20 AM57 °FCool.9 mph77%29.98 "HgN/A
7:20 AM57 °FCool.9 mph77%29.98 "HgN/A
6:20 AM57 °FCool.9 mph77%29.98 "HgN/A
5:20 AM57 °FCool.9 mph77%29.98 "HgN/A
4:20 AM57 °FCool.9 mph77%29.95 "HgN/A
3:20 AM57 °FCool.9 mph77%29.98 "HgN/A
2:20 AM57 °FCool.9 mph77%29.95 "HgN/A
1:20 AM57 °FCool.9 mph77%29.95 "HgN/A
12:20 AM57 °FCool.9 mph77%29.95 "HgN/A
11:20 PM
Fri, May 29
57 °FCool.9 mph77%29.92 "HgN/A
10:20 PM59 °FCool.6 mph72%29.89 "HgN/A
9:20 PM61 °FCool.3 mph68%29.89 "HgN/A
8:20 PM64 °FScattered clouds.3 mph56%29.86 "HgN/A
7:20 PM66 °FScattered clouds.9 mph49%29.86 "HgN/A
6:20 PM68 °FScattered clouds.8 mph43%29.86 "HgN/A
5:20 PM70 °FPassing clouds.10 mph38%29.86 "HgN/A
4:20 PM70 °FScattered clouds.13 mph38%29.86 "HgN/A
3:20 PM70 °FBroken clouds.7 mph35%29.89 "HgN/A
2:20 PM70 °FPartly sunny.10 mph38%29.89 "HgN/A
1:20 PM68 °FBroken clouds.9 mph43%29.92 "HgN/A
1:00 PM66 °FPartly sunny.6 mph46%29.95 "HgN/A
Weather by CustomWeather, © 2015

See weather overviewHow to use our weather pages